Location: Newark
(54.3386°S, 169.8415°W)
Time: 07:44:14
(UTC+00:00)

N. Korean satellite - Pass Details

Date: 24 October 2019
Orbit: 456 x 506 km, 97.2° (Epoch: 20 November)

Event Time Altitude Azimuth Distance (km) Brightness Sun altitude
Rises 14:33:16 0° 70° (ENE) 2,620 10.8 -10.5°
Reaches altitude 10° 14:36:25 10° 99° (E) 1,736 10.4 -10.1°
Maximum altitude 14:38:00 12° 125° (SE) 1,588 10.7 -9.9°
Drops below altitude 10° 14:39:35 10° 150° (SSE) 1,735 10.6 -9.8°
Sets 14:42:43 0° 179° (S) 2,617 10.8 -9.4°
